Regional Weather Roundup
Issued by NWS

Home | Current Version | Previous Version | Graphics & Text | Print | Product List | Glossary On
Versions: 1 2 3 4 5 6 7 8 9 10 11 12 13 14 15 16 17 18 19 20 21 22 23 24 25 26 27 28 29 30 31 32 33 34 35 36 37 38 39 40 41 42 43 44 45 46 47 48 49 50
000
ASUS43 KIND 221209
RWRIN

WEATHER ROUNDUP FOR INDIANA
NATIONAL WEATHER SERVICE INDIANAPOLIS IN
800 AM EDT TUE APR 22 2014

NOTE: "FAIR" INDICATES FEW OR NO CLOUDS BELOW 12,000 FEET WITH NO
SIGNIFICANT WEATHER AND/OR OBSTRUCTIONS TO VISIBILITY.

* - STATION DOES NOT REPORT WEATHER SUCH AS PRECIPITATION OR FOG.

+ - STATION NOT QUALITY CONTROLLED BY THE NATIONAL WEATHER SERVICE.
    USE DATA WITH CAUTION...ESPECIALLY DEWPOINT AND RELATIVE
    HUMIDITY OBSERVATIONS.

INZ001>003-010>013-019-020-221300-
NORTHWEST INDIANA

CITY           SKY/WX    TMP DP  RH WIND       PRES   REMARKS
GARY /AIRPORT/ SUNNY     43  36  75 N12G17    29.95R
LA PORTE +     SUNNY     40  31  69 N17G26    29.91R
6HR MIN TEMP:  40; 6HR MAX TEMP:  58; 6HR PCP:  0.01;

MICHIGAN CITY+ SUNNY     39  32  75 N12G17    29.94R
MONTICELLO +   SUNNY     43  35  73 N16G26    29.90R
RENSSELAER +   SUNNY     43  36  75 N12G18    29.93R
VALPARAISO     SUNNY     41  32  70 N15G22    29.92R
6HR MIN TEMP:  40; 6HR MAX TEMP:  59;


$$

LMZ046-743>745-221300-
SOUTHERN LAKE MICHIGAN

STATION/POSITION TIME  TEMP WIND        PRES
                       AIR  DIR/SP/G
                 (UTC) (F)  (DEG/KT/KT) (MB)
MICHIGAN CITY    1200   41  350/ 13/ 17   N/A

$$

INZ004-005-014>016-021>024-221300-
NORTH CENTRAL INDIANA

CITY           SKY/WX    TMP DP  RH WIND       PRES   REMARKS
GOSHEN         SUNNY     44  35  70 NW18G28   29.85R
6HR MIN TEMP:  44; 6HR MAX TEMP:  60; 6HR PCP: TRACE;

LOGANSPORT +   SUNNY     43  34  70 N20G25    29.89R
PERU/GRISSOM   MOSUNNY   45  42  86 NW15G21   29.87R
6HR MIN TEMP:  45; 6HR MAX TEMP:  58; 6HR PCP:  0.05;

ROCHESTER +    SUNNY     45  34  65 N18G29    29.87R
SOUTH BEND     SUNNY     42  32  67 N20       29.90R
6HR MIN TEMP:  42; 6HR MAX TEMP:  60;

WARSAW +       PTSUNNY   43  36  75 NW12G20   29.86R

$$

INZ006>009-017-018-025>027-221300-
NORTHEAST INDIANA

CITY           SKY/WX    TMP DP  RH WIND       PRES   REMARKS
ANGOLA *+      CLOUDY    48  46  93 NW12      29.80R
AUBURN +       CLOUDY    48  45  87 NW14G22   29.80R FOG
FORT WAYNE     CLOUDY    47  45  93 NW21G28   29.81R FOG
6HR MIN TEMP:  47; 6HR MAX TEMP:  59; 6HR PCP: TRACE;


$$

INZ028-029-035-036-043>045-051>053-221300-
WEST CENTRAL INDIANA

CITY           SKY/WX    TMP DP  RH WIND       PRES   REMARKS
GREENCASTLE +  CLOUDY    54  46  76 N16G26    29.87R
LAFAYETTE      SUNNY     44  34  67 N14G23    29.91R
6HR MIN TEMP:  44; 6HR MAX TEMP:  58;

TERRE HAUTE    CLOUDY    56  52  86 NW13      29.87R
6HR MIN TEMP:  56; 6HR MAX TEMP:  59;


$$

INZ030>032-037>040-046>048-054>057-064-065-221300-
CENTRAL INDIANA

CITY           SKY/WX    TMP DP  RH WIND       PRES   REMARKS
ANDERSON       CLOUDY    54  50  87 NW12G23   29.84
CP ATTERBURY + CLOUDY    59  55  88 NW12      29.83R FOG
COLUMBUS       CLOUDY    59  57  94 NW8       29.83R FOG
INDIANAPOLIS   CLOUDY    54  49  83 NW22G30   29.84R
6HR MIN TEMP:  54; 6HR MAX TEMP:  57;

-EAGLE CREEK   CLOUDY    53  43  68 N22G29    29.86R
6HR MIN TEMP:  53; 6HR MAX TEMP:  60; 6HR PCP: TRACE;

KOKOMO *+      SUNNY     46  36  66 N18       29.87R
MARION +       MOSUNNY   47  40  75 N13G20    29.84R
MT COMFORT *+  CLOUDY    57  57 100 NW15G29   29.84R
SHELBYVILLE    CLOUDY    60  56  86 NW12      29.82R FOG
6HR MIN TEMP:  58; 6HR MAX TEMP:  60;

ZIONSVILLE +   MOSUNNY   49  39  70 N14       29.87R
6HR MIN TEMP:  49; 6HR MAX TEMP:  59;


$$

INZ033-034-041-042-049-050-058-059-221300-
EAST CENTRAL INDIANA

CITY           SKY/WX    TMP DP  RH WIND       PRES   REMARKS
MUNCIE         CLOUDY    54  51  90 NW20      29.81R FOG
6HR MIN TEMP:  54; 6HR MAX TEMP:  59; 6HR PCP:  0.15;


$$

INZ060-061-067>069-081>083-085>088-221300-
SOUTHWEST INDIANA

CITY           SKY/WX    TMP DP  RH WIND       PRES   REMARKS
EVANSVILLE     PTCLDY    61  57  87 NW12      29.87R HAZE
6HR MIN TEMP:  61; 6HR MAX TEMP:  63;

HUNTINGBURG *+ MOSUNNY   57  54  88 NW5       29.86R
6HR MIN TEMP:  57; 6HR MAX TEMP:  63;

WASHINGTON +   MOSUNNY   58  57  96 NW8       29.85R FOG
6HR MIN TEMP:  57; 6HR MAX TEMP:  60;


$$

INZ062-063-066-070>080-084-089>092-221300-
SOUTH CENTRAL AND SOUTHEAST INDIANA

CITY           SKY/WX    TMP DP  RH WIND       PRES   REMARKS
BLOOMINGTON    CLOUDY    60  56  86 NW5       29.85R FOG
6HR MIN TEMP:  57; 6HR MAX TEMP:  60;


$$




USA.gov is the U.S. government's official web portal to all federal, state and local government web resources and services.